YO2LC Weather Reports


time (UTC)temp
F
wind
direction
speed
knots
gust
knots
rain 1hr
in
rain 24hr
in
rain mn
in
humidity
%
barometer
mb
20260507124043 73 170 0.0 0.0 0.00 0.00 0.00 55 1014.9
20260507123544 74 170 0.0 0.0 0.00 0.00 0.00 54 1015.1
20260507123046 75 170 0.0 0.0 0.00 0.00 0.00 53 1015.0
20260507122540 75 170 0.0 0.0 0.00 0.00 0.00 53 1015.0
20260507122040 75 170 0.0 0.0 0.00 0.00 0.00 52 1015.0
20260507121539 75 170 0.0 0.0 0.00 0.00 0.00 51 1015.1
20260507121040 75 170 0.0 0.0 0.00 0.00 0.00 51 1015.1
20260507120536 75 170 0.0 0.0 0.00 0.00 0.00 53 1015.1
20260507120036 74 170 0.0 0.0 0.00 0.00 0.00 55 1015.1
20260507115533 74 170 0.0 0.0 0.00 0.00 0.00 55 1015.1
20260507115031 74 170 0.0 0.0 0.00 0.00 0.00 55 1015.2
20260507114530 73 170 0.0 0.0 0.00 0.00 0.00 55 1015.2
20260507114038 73 170 0.0 0.0 0.00 0.00 0.00 55 1015.3
20260507113528 73 170 0.0 0.0 0.00 0.00 0.00 55 1015.3
20260507113030 73 170 0.0 0.0 0.00 0.00 0.00 55 1015.3
20260507112527 73 170 0.0 0.0 0.00 0.00 0.00 53 1015.3
20260507112027 73 170 0.0 0.0 0.00 0.00 0.00 53 1015.4
20260507111526 73 170 0.0 0.0 0.00 0.00 0.00 52 1015.4
20260507111024 73 170 0.0 0.0 0.00 0.00 0.00 51 1015.3
20260507110524 73 170 0.0 0.0 0.00 0.00 0.00 50 1015.5
20260507110030 73 170 0.0 0.0 0.00 0.00 0.00 50 1015.6
20260507105525 73 170 0.0 0.0 0.00 0.00 0.00 49 1015.6
20260507105023 72 170 0.0 0.0 0.00 0.00 0.00 49 1015.6
20260507104522 72 170 0.0 0.0 0.00 0.00 0.00 50 1015.6
20260507104021 72 170 0.0 0.0 0.00 0.00 0.00 49 1015.7
20260507103520 72 170 0.0 0.0 0.00 0.00 0.00 48 1015.7
20260507103023 72 170 0.0 0.0 0.00 0.00 0.00 49 1015.8
20260507102519 72 170 0.0 0.0 0.00 0.00 0.00 52 1015.8
20260507102018 72 170 0.0 0.0 0.00 0.00 0.00 53 1015.7
20260507101518 71 170 0.0 0.0 0.00 0.00 0.00 52 1015.8
20260507101018 71 170 0.0 0.0 0.00 0.00 0.00 51 1015.9
20260507100518 71 170 0.0 0.0 0.00 0.00 0.00 52 1015.9
20260507100016 72 170 0.0 0.0 0.00 0.00 0.00 52 1016.0
20260507095515 72 170 0.0 0.0 0.00 0.00 0.00 54 1016.0
20260507095015 72 170 0.0 0.0 0.00 0.00 0.00 54 1015.9
20260507094515 71 170 0.0 0.0 0.00 0.00 0.00 54 1015.9
20260507094014 71 170 0.0 0.0 0.00 0.00 0.00 54 1016.0
20260507093513 71 170 0.0 0.0 0.00 0.00 0.00 55 1016.0
20260507093013 71 170 0.0 0.0 0.00 0.00 0.00 55 1016.0
20260507092513 71 170 0.0 0.0 0.00 0.00 0.00 59 1016.0
20260507092011 71 170 0.0 0.0 0.00 0.00 0.00 57 1016.0
20260507091511 71 170 0.0 0.0 0.00 0.00 0.00 59 1016.1
20260507091010 71 170 0.0 0.0 0.00 0.00 0.00 59 1016.0
20260507090510 71 170 0.0 0.0 0.00 0.00 0.00 59 1016.0
20260507090011 71 170 0.0 0.0 0.00 0.00 0.00 60 1016.0
20260507085508 71 170 0.0 0.0 0.00 0.00 0.00 59 1016.0
20260507085008 71 170 0.0 0.0 0.00 0.00 0.00 57 1016.0
20260507084512 71 170 0.0 0.0 0.00 0.00 0.00 57 1015.9
20260507084006 71 170 0.0 0.0 0.00 0.00 0.00 59 1015.9
20260507083505 71 170 0.0 0.0 0.00 0.00 0.00 58 1016.0
20260507083005 71 170 0.0 0.0 0.00 0.00 0.00 60 1015.9
20260507082504 71 170 0.0 0.0 0.00 0.00 0.00 60 1015.9
20260507082003 70 170 0.0 0.0 0.00 0.00 0.00 62 1015.9
20260507081503 70 170 0.0 0.0 0.00 0.00 0.00 62 1016.0
20260507081003 69 170 0.0 0.0 0.00 0.00 0.00 62 1016.0
20260507080504 69 170 0.0 0.0 0.00 0.00 0.00 63 1016.0
20260507080002 68 170 0.0 0.0 0.00 0.00 0.00 63 1016.0
20260507075502 68 170 0.0 0.0 0.00 0.00 0.00 64 1016.0
20260507075102 68 170 0.0 0.0 0.00 0.00 0.00 65 1016.0
20260507074601 67 170 0.0 0.0 0.00 0.00 0.00 66 1016.1
20260507074058 67 170 0.0 0.0 0.00 0.00 0.00 66 1016.0
20260507073557 66 170 0.0 0.0 0.00 0.00 0.00 65 1015.9
20260507073056 66 170 0.0 0.0 0.00 0.00 0.00 66 1015.9
20260507072556 66 170 0.0 0.0 0.00 0.00 0.00 67 1015.9
20260507072055 66 170 0.0 0.0 0.00 0.00 0.00 66 1015.9
20260507071554 66 170 0.0 0.0 0.00 0.00 0.00 66 1015.9
20260507071054 66 170 0.0 0.0 0.00 0.00 0.00 65 1016.0
20260507070554 66 170 0.0 0.0 0.00 0.00 0.00 65 1016.0
20260507070054 66 170 0.0 0.0 0.00 0.00 0.00 65 1015.9
20260507065551 66 170 0.0 0.0 0.00 0.00 0.00 65 1015.8
20260507065050 66 170 0.0 0.0 0.00 0.00 0.00 65 1015.8
20260507064606 66 170 0.0 0.0 0.00 0.00 0.00 65 1015.8
20260507064050 66 170 0.0 0.0 0.00 0.00 0.00 66 1015.8
20260507063549 67 170 0.0 0.0 0.00 0.00 0.00 66 1015.8
20260507063053 66 170 0.0 0.0 0.00 0.00 0.00 66 1015.8
20260507062547 66 170 0.0 0.0 0.00 0.00 0.00 65 1015.8
20260507062047 66 170 0.0 0.0 0.00 0.00 0.00 65 1015.8
20260507061546 66 170 0.0 0.0 0.00 0.00 0.00 65 1015.7
20260507061044 66 170 0.0 0.0 0.00 0.00 0.00 65 1015.6
20260507060543 66 170 0.0 0.0 0.00 0.00 0.00 65 1015.6
20260507060043 65 170 0.0 0.0 0.00 0.00 0.00 65 1015.6
20260507055541 65 170 0.0 0.0 0.00 0.00 0.00 67 1015.4
20260507055041 65 170 0.0 0.0 0.00 0.00 0.00 67 1015.5
20260507054542 64 170 0.0 0.0 0.00 0.00 0.00 70 1015.4
20260507054140 64 170 0.0 0.0 0.00 0.00 0.00 72 1015.3
20260507053539 64 170 0.0 0.0 0.00 0.00 0.00 74 1015.4
20260507053038 64 170 0.0 0.0 0.00 0.00 0.00 73 1015.5
20260507052538 64 170 0.0 0.0 0.00 0.00 0.00 72 1015.4
20260507052036 64 170 0.0 0.0 0.00 0.00 0.00 73 1015.3
20260507051535 64 170 0.0 0.0 0.00 0.00 0.00 73 1015.3
20260507051034 64 170 0.0 0.0 0.00 0.00 0.00 73 1015.2
20260507050532 64 170 0.0 0.0 0.00 0.00 0.00 72 1015.1
20260507050038 64 170 0.0 0.0 0.00 0.00 0.00 71 1015.1
20260507045534 64 170 0.0 0.0 0.00 0.00 0.00 70 1015.0
20260507045030 64 170 0.0 0.0 0.00 0.00 0.00 70 1015.0
20260507044529 64 170 0.0 0.0 0.00 0.00 0.00 71 1014.9
20260507044028 64 170 0.0 0.0 0.00 0.00 0.00 70 1014.9
20260507043527 63 170 0.0 0.0 0.00 0.00 0.00 70 1014.9
20260507043027 64 170 0.0 0.0 0.00 0.00 0.00 70 1014.8
20260507042525 64 170 0.0 0.0 0.00 0.00 0.00 70 1014.8
20260507042025 64 170 0.0 0.0 0.00 0.00 0.00 69 1014.7
20260507041537 64 170 0.0 0.0 0.00 0.00 0.00 68 1014.7
20260507041023 64 170 0.0 0.0 0.00 0.00 0.00 68 1014.7
20260507040524 64 170 0.0 0.0 0.00 0.00 0.00 67 1014.6
20260507040020 64 170 0.0 0.0 0.00 0.00 0.00 67 1014.7
20260507035519 64 170 0.0 0.0 0.00 0.00 0.00 67 1014.6
20260507035020 64 170 0.0 0.0 0.00 0.00 0.00 66 1014.5
20260507034517 64 170 0.0 0.0 0.00 0.00 0.00 65 1014.4
20260507034015 64 170 0.0 0.0 0.00 0.00 0.00 65 1014.3
20260507033514 64 170 0.0 0.0 0.00 0.00 0.00 65 1014.2
20260507033014 65 170 0.0 0.0 0.00 0.00 0.00 64 1014.2
20260507032512 65 170 0.0 0.0 0.00 0.00 0.00 64 1014.2
20260507032010 65 170 0.0 0.0 0.00 0.00 0.00 64 1014.1
20260507031509 65 170 0.0 0.0 0.00 0.00 0.00 63 1014.1
20260507031008 65 170 0.0 0.0 0.00 0.00 0.00 63 1014.2
20260507030507 65 170 0.0 0.0 0.00 0.00 0.00 63 1014.1
20260507030006 65 170 0.0 0.0 0.00 0.00 0.00 62 1014.1
20260507025508 65 170 0.0 0.0 0.00 0.00 0.00 62 1014.1
20260507025003 65 170 0.0 0.0 0.00 0.00 0.00 62 1014.0
20260507024505 66 170 0.0 0.0 0.00 0.00 0.00 61 1014.0
20260507024004 66 170 0.0 0.0 0.00 0.00 0.00 61 1013.9
20260507023600 66 170 0.0 0.0 0.00 0.00 0.00 61 1013.7
20260507023113 66 170 0.0 0.0 0.00 0.00 0.00 60 1013.8
20260507022600 66 170 0.0 0.0 0.00 0.00 0.00 60 1013.6
20260507022057 66 170 0.0 0.0 0.00 0.00 0.00 60 1013.6
20260507021556 66 170 0.0 0.0 0.00 0.00 0.00 60 1013.6
20260507021054 66 170 0.0 0.0 0.00 0.00 0.00 59 1013.7
20260507020553 66 170 0.0 0.0 0.00 0.00 0.00 59 1013.6
20260507020052 67 170 0.0 0.0 0.00 0.00 0.00 59 1013.6
20260507015550 67 170 0.0 0.0 0.00 0.00 0.00 58 1013.5
20260507015050 67 170 0.0 0.0 0.00 0.00 0.00 58 1013.4
20260507014602 67 170 0.0 0.0 0.00 0.00 0.00 58 1013.4
20260507014050 67 170 0.0 0.0 0.00 0.00 0.00 58 1013.5
20260507013549 67 170 0.0 0.0 0.00 0.00 0.00 57 1013.5
20260507013109 67 170 0.0 0.0 0.00 0.00 0.00 57 1013.4
20260507012544 67 170 0.0 0.0 0.00 0.00 0.00 57 1013.4
20260507012044 67 170 0.0 0.0 0.00 0.00 0.00 57 1013.4
20260507011543 67 170 0.0 0.0 0.00 0.00 0.00 57 1013.3
20260507011042 68 170 0.0 0.0 0.00 0.00 0.00 56 1013.4
20260507010640 68 170 0.0 0.0 0.00 0.00 0.00 56 1013.3
20260507010039 68 170 0.0 0.0 0.00 0.00 0.00 56 1013.3
20260507005538 68 170 0.0 0.0 0.00 0.00 0.00 55 1013.3
20260507005037 68 170 0.0 0.0 0.00 0.00 0.00 55 1013.3
20260507004537 68 170 0.0 0.0 0.00 0.00 0.00 55 1013.3
20260507004037 68 170 0.0 0.0 0.00 0.00 0.00 54 1013.4
20260507003536 68 170 0.0 0.0 0.00 0.00 0.00 55 1013.3
20260507003037 68 170 0.0 0.0 0.00 0.00 0.00 55 1013.2
20260507002533 68 170 0.0 0.0 0.00 0.00 0.00 55 1013.2
20260507002032 68 170 0.0 0.0 0.00 0.00 0.00 56 1013.2
20260507001531 68 170 0.0 0.0 0.00 0.00 0.00 56 1013.1
20260507001031 68 170 0.0 0.0 0.00 0.00 0.00 56 1013.2
20260507000533 68 170 0.0 0.0 0.00 0.00 0.00 56 1013.1
20260507000031 68 170 0.0 0.0 0.00 0.00 0.00 56 1013.0
20260506235527 68 170 0.0 0.0 0.00 0.00 0.00 56 1013.0
20260506235027 68 170 0.0 0.0 0.00 0.00 0.00 56 1013.0
20260506234525 69 170 0.0 0.0 0.00 0.00 0.00 56 1012.9
20260506234025 69 170 0.0 0.0 0.00 0.00 0.00 55 1013.0
20260506233523 69 170 0.0 0.0 0.00 0.00 0.00 55 1013.0
20260506233023 69 170 0.0 0.0 0.00 0.00 0.00 55 1012.9
20260506232522 69 170 0.0 0.0 0.00 0.00 0.00 54 1012.9
20260506232018 70 170 0.0 0.0 0.00 0.00 0.00 54 1012.8
20260506231619 70 170 0.0 0.0 0.00 0.00 0.00 54 1012.8
20260506231017 70 170 0.0 0.0 0.00 0.00 0.00 54 1012.8
20260506230514 70 170 0.0 0.0 0.00 0.00 0.00 54 1012.8
20260506230015 70 170 0.0 0.0 0.00 0.00 0.00 53 1012.6
20260506225516 70 170 0.0 0.0 0.00 0.00 0.00 53 1012.5
20260506225011 70 170 0.0 0.0 0.00 0.00 0.00 53 1012.4
20260506224509 71 170 0.0 0.0 0.00 0.00 0.00 53 1012.4
20260506224006 71 170 0.0 0.0 0.00 0.00 0.00 52 1012.2
20260506223505 71 170 0.0 0.0 0.00 0.00 0.00 52 1012.1
20260506223005 72 170 0.0 0.0 0.00 0.00 0.00 51 1012.0
20260506222503 72 170 0.0 0.0 0.00 0.00 0.00 51 1012.0
20260506222002 72 170 0.0 0.0 0.00 0.00 0.00 51 1011.9
20260506221502 72 170 0.0 0.0 0.00 0.00 0.00 51 1011.9
20260506221100 72 170 0.0 0.0 0.00 0.00 0.00 50 1011.8
20260506220600 72 170 0.0 0.0 0.00 0.00 0.00 50 1011.8
20260506220059 72 170 0.0 0.0 0.00 0.00 0.00 50 1011.8
20260506215559 72 170 0.0 0.0 0.00 0.00 0.00 50 1011.8
20260506215056 72 170 0.0 0.0 0.00 0.00 0.00 50 1011.8
20260506214608 72 170 0.0 0.0 0.00 0.00 0.00 49 1011.8
20260506214058 73 170 0.0 0.0 0.00 0.00 0.00 49 1011.7
20260506213556 73 170 0.0 0.0 0.00 0.00 0.00 49 1011.5
20260506213054 73 170 0.0 0.0 0.00 0.00 0.00 48 1011.6
20260506212551 73 170 0.0 0.0 0.00 0.00 0.00 49 1011.5
20260506212054 73 170 0.0 0.0 0.00 0.00 0.00 48 1011.7
20260506211551 73 170 0.0 0.0 0.00 0.00 0.00 48 1011.6
20260506211049 73 170 0.0 0.0 0.00 0.00 0.00 48 1011.7
20260506210548 73 170 0.0 0.0 0.00 0.00 0.00 48 1011.6
20260506210047 73 170 0.0 0.0 0.00 0.00 0.00 48 1011.5
20260506205546 73 170 0.0 0.0 0.00 0.00 0.00 48 1011.6
20260506205046 73 170 0.0 0.0 0.00 0.00 0.00 49 1011.7
20260506204546 73 170 0.0 0.0 0.00 0.00 0.00 49 1011.7
20260506204045 73 170 0.0 0.0 0.00 0.00 0.00 49 1011.7
20260506203544 73 170 0.0 0.0 0.00 0.00 0.00 49 1011.6
20260506203046 73 170 0.0 0.0 0.00 0.00 0.00 49 1011.7
20260506202546 73 170 0.0 0.0 0.00 0.00 0.00 49 1011.6
20260506202042 72 170 0.0 0.0 0.00 0.00 0.00 50 1011.7
20260506201542 72 170 0.0 0.0 0.00 0.00 0.00 50 1011.7
20260506201045 72 170 0.0 0.0 0.00 0.00 0.00 50 1011.6
20260506200540 72 170 0.0 0.0 0.00 0.00 0.00 51 1011.6
20260506195539 71 170 0.0 0.0 0.00 0.00 0.00 52 1011.5
20260506195039 70 170 0.0 0.0 0.00 0.00 0.00 53 1011.6
20260506194539 69 170 0.0 0.0 0.00 0.00 0.00 55 1011.6
20260506194038 66 170 0.0 0.0 0.00 0.00 0.00 60 1011.7
20260506193540 63 170 0.0 0.0 0.00 0.00 0.00 65 1011.8
20260506193037 62 170 0.0 0.0 0.00 0.00 0.00 67 1011.7
20260506192536 62 170 0.0 0.0 0.00 0.00 0.00 67 1011.8
20260506192038 62 170 0.0 0.0 0.00 0.00 0.00 66 1011.7
20260506191536 62 170 0.0 0.0 0.00 0.00 0.00 66 1011.7
20260506191034 62 170 0.0 0.0 0.00 0.00 0.00 65 1011.7
20260506190534 62 170 0.0 0.0 0.00 0.00 0.00 64 1011.7
20260506190034 63 170 0.0 0.0 0.00 0.00 0.00 65 1011.7
20260506185532 63 170 0.0 0.0 0.00 0.00 0.00 65 1011.6
20260506185031 63 170 0.0 0.0 0.00 0.00 0.00 65 1011.6
20260506184531 63 170 0.0 0.0 0.00 0.00 0.00 65 1011.6
20260506184031 63 170 0.0 0.0 0.00 0.00 0.00 64 1011.5
20260506183530 64 170 0.0 0.0 0.00 0.00 0.00 64 1011.4
20260506183030 64 170 0.0 0.0 0.00 0.00 0.00 64 1011.4
20260506182528 64 170 0.0 0.0 0.00 0.00 0.00 63 1011.4
20260506182027 65 170 0.0 0.0 0.00 0.00 0.00 62 1011.4
20260506181531 65 170 0.0 0.0 0.00 0.00 0.00 62 1011.3
20260506181026 66 170 0.0 0.0 0.00 0.00 0.00 61 1011.3
20260506180529 67 170 0.0 0.0 0.00 0.00 0.00 60 1011.2
20260506180033 67 170 0.0 0.0 0.00 0.00 0.00 60 1011.0
20260506175527 68 170 0.0 0.0 0.00 0.00 0.00 59 1011.0
20260506175023 69 170 0.0 0.0 0.00 0.00 0.00 58 1011.0
20260506174526 69 170 0.0 0.0 0.00 0.00 0.00 59 1011.1
20260506174022 70 170 0.0 0.0 0.00 0.00 0.00 57 1011.0
20260506173523 71 170 0.0 0.0 0.00 0.00 0.00 55 1011.0
20260506173021 72 170 0.0 0.0 0.00 0.00 0.00 55 1011.0
20260506172522 73 170 0.0 0.0 0.00 0.00 0.00 53 1011.1
20260506172021 74 170 0.0 0.0 0.00 0.00 0.00 52 1011.1
20260506171536 75 170 0.0 0.0 0.00 0.00 0.00 51 1011.1
20260506171019 76 170 0.0 0.0 0.00 0.00 0.00 50 1011.1
20260506170517 78 170 0.0 0.0 0.00 0.00 0.00 49 1011.1
20260506170018 79 170 0.0 0.0 0.00 0.00 0.00 47 1011.1
20260506165516 80 170 0.0 0.0 0.00 0.00 0.00 46 1011.1
20260506165016 81 170 0.0 0.0 0.00 0.00 0.00 45 1011.1
20260506164516 81 170 0.0 0.0 0.00 0.00 0.00 43 1011.1
20260506164014 82 170 0.0 0.0 0.00 0.00 0.00 42 1011.1
20260506163514 82 170 0.0 0.0 0.00 0.00 0.00 41 1011.1
20260506163020 82 170 0.0 0.0 0.00 0.00 0.00 39 1011.1
20260506162514 83 170 0.0 0.0 0.00 0.00 0.00 38 1011.1
20260506162015 83 170 0.0 0.0 0.00 0.00 0.00 37 1011.1
20260506161520 82 170 0.0 0.0 0.00 0.00 0.00 38 1011.0
20260506161012 83 170 0.0 0.0 0.00 0.00 0.00 37 1011.1
20260506160510 83 170 0.0 0.0 0.00 0.00 0.00 36 1011.2
20260506160012 83 170 0.0 0.0 0.00 0.00 0.00 35 1011.2
20260506155515 84 170 0.0 0.0 0.00 0.00 0.00 35 1011.2
20260506155007 84 170 0.0 0.0 0.00 0.00 0.00 35 1011.2
20260506154506 83 170 0.0 0.0 0.00 0.00 0.00 35 1011.2
20260506154005 84 170 0.0 0.0 0.00 0.00 0.00 34 1011.3
20260506153505 84 170 0.0 0.0 0.00 0.00 0.00 35 1011.3
20260506153004 83 170 0.0 0.0 0.00 0.00 0.00 33 1011.5
20260506152504 83 170 0.0 0.0 0.00 0.00 0.00 34 1011.6
20260506152004 84 170 0.0 0.0 0.00 0.00 0.00 35 1011.6
20260506151501 84 170 0.0 0.0 0.00 0.00 0.00 34 1011.8
20260506151100 83 170 0.0 0.0 0.00 0.00 0.00 33 1011.8
20260506150600 84 170 0.0 0.0 0.00 0.00 0.00 33 1011.8
20260506150105 84 170 0.0 0.0 0.00 0.00 0.00 33 1011.7
20260506145602 85 170 0.0 0.0 0.00 0.00 0.00 32 1011.5
20260506145058 85 170 0.0 0.0 0.00 0.00 0.00 33 1011.6
20260506144556 84 170 0.0 0.0 0.00 0.00 0.00 32 1011.6
20260506144054 83 170 0.0 0.0 0.00 0.00 0.00 33 1011.7
20260506143553 83 170 0.0 0.0 0.00 0.00 0.00 35 1011.8
20260506143051 83 170 0.0 0.0 0.00 0.00 0.00 33 1011.8
20260506142550 83 170 0.0 0.0 0.00 0.00 0.00 33 1012.1
20260506142047 83 170 0.0 0.0 0.00 0.00 0.00 34 1012.1
20260506141545 83 170 0.0 0.0 0.00 0.00 0.00 34 1012.1
20260506141044 83 170 0.0 0.0 0.00 0.00 0.00 34 1012.0
20260506140542 83 170 0.0 0.0 0.00 0.00 0.00 34 1012.1
20260506140045 83 170 0.0 0.0 0.00 0.00 0.00 33 1012.2
20260506135538 83 170 0.0 0.0 0.00 0.00 0.00 35 1012.1
20260506135036 83 170 0.0 0.0 0.00 0.00 0.00 33 1012.2
20260506134606 82 170 0.0 0.0 0.00 0.00 0.00 33 1012.2
20260506134032 82 170 0.0 0.0 0.00 0.00 0.00 33 1012.1
20260506133531 82 170 0.0 0.0 0.00 0.00 0.00 34 1012.2
20260506133030 82 170 0.0 0.0 0.00 0.00 0.00 34 1012.3
20260506132527 82 170 0.0 0.0 0.00 0.00 0.00 35 1012.3
20260506132026 82 170 0.0 0.0 0.00 0.00 0.00 35 1012.3
20260506131627 82 170 0.0 0.0 0.00 0.00 0.00 34 1012.4
20260506131023 82 170 0.0 0.0 0.00 0.00 0.00 34 1012.4
20260506130528 82 170 0.0 0.0 0.00 0.00 0.00 34 1012.4
20260506130020 82 170 0.0 0.0 0.00 0.00 0.00 35 1012.5
20260506125519 82 170 0.0 0.0 0.00 0.00 0.00 36 1012.6
20260506125017 82 170 0.0 0.0 0.00 0.00 0.00 36 1012.7
20260506124620 81 170 0.0 0.0 0.00 0.00 0.00 35 1012.6